[[{"header":{"parameterUnit":"m.s-1","parameterCategory":1,"la1":30.2991,"la2":30.254,"lo1":-89.0895,"lo2":-89.0444,"dy":0.0017,"dx":0.0017,"nx":28,"ny":28,"refTime":"2023-07-19T09:00:00:Z","depth":0,"parameterNumber":2,"parameterNumberName":"U-component_of_WINDS"},"data":[0,0,0,0,0,0,0,0,0,0,0,0,0,0,0,0,0,0,0,0,0,0,0,0,0,0,0,0,0,0,0,0,0,0,0,0,0,0,0,0,0,0,0,0,0,0,0,0,0,0,0,0,0,0,0,0,0,0,4.3752,4.3753,0,4.3862,4.3863,4.3864,4.3785,4.3781,4.3778,4.3774,4.3886,4.3892,4.3898,0,0,0,0,0,0,0,0,0,0,0,0,0,4.3469,4.3474,4.3752,4.3753,4.3754,4.3862,4.3863,4.3865,4.3785,4.3781,4.3777,4.3773,4.3884,4.3891,4.3899,0,0,0,0,0,0,0,0,0,0,0,0,0,4.3587,4.3476,4.3751,4.3728,4.3727,4.3861,4.3863,4.3865,4.3786,4.3781,4.3776,4.3771,4.3881,4.389,4.39,4.4063,0,0,4.3928,4.3932,0,0,0,0,0,0,0,0,4.358,4.3597,4.373,4.373,4.3729,4.3804,4.3804,4.3931,4.3788,4.3764,4.3774,4.3768,4.3863,4.3873,4.3906,4.4068,4.4073,4.3929,4.3935,4.3939,4.3941,0,0,0,0,0,0,0,4.3572,4.3592,4.3795,4.3732,4.3731,4.371,4.3721,4.3828,4.3841,4.3765,4.376,4.3774,4.3861,4.3897,4.3908,4.4074,4.3929,4.3937,4.3943,4.3947,4.4371,4.4376,0,0,0,0,0,0,4.3566,4.3586,4.3792,4.3798,4.364,4.372,4.3732,4.3785,4.384,4.3843,4.3778,4.377,4.3883,4.3897,4.3911,4.4102,4.3939,4.3947,4.3953,4.4365,4.4372,4.4378,0,0,0,0,0,0,4.3561,4.3585,4.3787,4.3691,4.3715,4.373,4.3791,4.379,4.3825,4.385,4.3852,4.3812,4.388,4.3898,4.4025,4.4105,4.3952,4.396,4.4358,4.4367,4.4375,4.4487,0,0,0,0,0,0,4.3553,4.3584,4.3647,4.3693,4.372,4.39,4.3796,4.3796,4.3842,4.3832,4.3882,4.3885,4.3877,4.4011,4.4034,4.4115,4.3967,4.4351,4.4362,4.4372,4.4476,4.4498,4.4517,0,0,0,0,0,4.3543,4.3675,4.3651,4.3676,4.38,4.3905,4.3921,4.3909,4.3849,4.3911,4.3926,4.3884,4.4093,4.4025,4.405,4.4135,4.4346,4.4359,4.4372,4.4467,4.4494,4.4517,0,0,0,0,0,0,4.3639,4.3681,4.3654,4.3806,4.3852,4.3892,4.397,4.3939,4.4003,4.3991,4.3973,4.3985,4.4117,4.4139,4.4062,4.4293,4.421,4.4228,4.4274,4.4299,4.432,4.431,4.3975,0,0,0,0,0,4.3678,4.3761,4.3793,4.3923,4.3948,4.3955,4.4001,4.3987,4.4035,4.4054,4.4079,4.4126,4.4202,4.4252,4.4324,4.448,4.4487,4.455,4.4571,4.4587,4.4602,4.4682,4.4709,4.442,4.442,4.442,0,0,4.3759,4.3792,4.3846,4.3943,4.3978,4.4062,4.3973,4.4067,4.4128,4.4069,4.4188,4.4208,4.4259,4.44,4.4463,4.4422,4.4684,4.4603,4.4617,4.4623,4.4698,4.4725,4.4749,4.4429,4.4427,4.4426,0,0,4.3949,4.3984,4.4094,4.413,4.4184,4.4187,4.4214,4.4258,4.4268,4.4388,4.4344,4.4416,4.4549,4.4585,4.4622,4.4822,4.4784,4.4846,4.4952,4.503,4.5053,4.5073,4.514,4.5165,4.4862,4.4862,4.4862,0,4.4043,4.417,4.4155,4.4251,4.4294,4.4243,4.4352,4.4388,4.4462,4.4492,4.4445,4.4607,4.4638,4.4784,4.4833,4.4866,4.4892,4.4839,4.5051,4.5071,4.5089,4.5153,4.5179,4.4869,4.4868,4.4868,4.4867,0,4.428,4.4368,4.4451,4.4522,4.4574,4.4677,4.4676,4.473,4.4711,4.4719,4.484,4.4875,4.4951,4.4985,4.4969,4.5129,4.5101,4.5053,4.4968,4.5124,4.5183,4.5208,4.4879,4.4876,4.4874,4.4873,0,0,4.4534,4.4594,4.4625,4.4654,4.4708,4.4775,4.4875,4.4948,4.4993,4.5046,4.5126,4.5237,4.5192,4.5233,4.522,4.5289,4.544,4.5232,4.5233,4.5266,4.5613,4.5646,4.5675,4.5416,4.542,4.5424,4.5607,0,4.4724,4.4897,4.4885,4.5047,4.5126,4.5077,4.5163,4.5204,4.5214,4.5281,4.5291,4.5368,4.5305,4.5329,4.5395,4.5408,4.5509,4.5395,4.5487,4.5491,4.5473,4.5707,4.5743,4.5914,4.5631,4.5635,4.5638,0,4.4969,4.5028,4.5198,4.5236,4.5268,4.5346,4.541,4.5476,4.552,4.5522,4.5566,4.5541,4.5638,4.5553,4.5684,4.5607,4.5644,4.5655,4.5662,4.5667,4.5572,4.5716,4.5969,4.5993,4.5675,4.5672,4.567,0,4.5132,4.5255,4.5371,4.5398,4.5447,4.5502,4.5524,4.5564,4.5607,4.5663,4.5691,4.5758,4.5794,4.5846,4.5838,4.5777,4.597,4.5885,4.5972,4.5972,4.6013,4.601,4.6272,4.6042,4.6042,4.6042,4.6041,0,4.5344,4.5448,4.5444,4.5515,4.563,4.5615,4.5728,4.5744,4.5779,4.585,4.5814,4.5881,4.5868,4.5935,4.593,4.6037,4.6055,4.6057,4.6053,4.6058,4.6057,4.608,4.6067,4.6048,4.6047,4.6045,4.6044,0,4.5545,4.5547,4.5669,4.5705,4.5716,4.5798,4.5827,4.5893,4.5899,4.5989,4.601,4.6019,4.6095,4.6093,4.618,4.6176,4.6307,4.6292,4.6292,4.6287,4.6372,4.6363,4.6656,4.6691,4.6442,4.6444,4.6446,0,4.5678,4.5757,4.58,4.5845,4.5871,4.5945,4.5988,4.5976,4.6023,4.6077,4.6136,4.6209,4.6266,4.639,4.6403,4.6468,4.6452,4.655,4.6462,4.6462,4.6449,4.6443,4.6448,4.6567,4.657,4.6572,4.6574,0,4.5913,4.5909,4.5974,4.6039,4.6092,4.6142,4.6188,4.6227,4.6219,4.6273,4.635,4.6395,4.6482,4.6554,4.6616,4.6637,4.6603,4.6602,4.6624,4.6629,4.6624,4.6623,4.6335,4.6595,4.6593,4.6591,4.659,4.6589,4.6082,4.6148,4.6187,4.626,4.6293,4.6336,4.6398,4.6411,4.6475,4.6545,4.6534,4.6619,4.6658,4.6738,4.6765,4.683,4.6795,4.6829,4.6837,4.6844,4.6852,4.6616,4.6842,4.6841,4.684,4.684,4.6839,0,4.6311,4.6334,4.6401,4.6465,4.6521,4.6485,4.6533,4.6582,4.6658,4.6697,4.6753,4.684,4.6908,4.6926,4.6991,4.704,4.7025,4.7057,4.7051,4.7056,4.6882,4.6853,4.7067,4.7067,4.7067,4.7067,4.7067,4.7067,4.6437,4.6546,4.6546,4.6669,4.6691,4.6774,4.6804,4.6842,4.6873,4.6971,4.7028,4.7039,4.7068,4.7135,4.7195,4.7198,4.7222,4.7259,4.7255,4.7092,4.7069,4.7047,4.702,4.7265,4.7265,4.7424,4.7425,4.7426]},{"header":{"parameterUnit":"m.s-1","parameterCategory":1,"la1":30.2991,"la2":30.254,"lo1":-89.0895,"lo2":-89.0444,"dy":0.0017,"dx":0.0017,"nx":28,"ny":28,"refTime":"2023-07-19T09:00:00:Z","depth":0,"parameterNumber":3,"parameterNumberName":"V-component_of_WINDS"},"data":[0,0,0,0,0,0,0,0,0,0,0,0,0,0,0,0,0,0,0,0,0,0,0,0,0,0,0,0,0,0,0,0,0,0,0,0,0,0,0,0,0,0,0,0,0,0,0,0,0,0,0,0,0,0,0,0,0,0,1.6198,1.6198,0,1.6225,1.6226,1.6226,1.6188,1.6187,1.6186,1.6184,1.6213,1.6215,1.6217,0,0,0,0,0,0,0,0,0,0,0,0,0,1.6112,1.6114,1.6198,1.6198,1.6199,1.6225,1.6226,1.6226,1.6189,1.6187,1.6185,1.6184,1.6212,1.6215,1.6217,0,0,0,0,0,0,0,0,0,0,0,0,0,1.6146,1.6115,1.6198,1.6183,1.6182,1.6225,1.6226,1.6226,1.6189,1.6187,1.6185,1.6183,1.6212,1.6215,1.6218,1.6277,0,0,1.6227,1.6228,0,0,0,0,0,0,0,0,1.6144,1.6149,1.6185,1.6184,1.6183,1.6201,1.6206,1.6243,1.6189,1.6186,1.6184,1.6182,1.6211,1.6214,1.6223,1.6278,1.6279,1.6227,1.6229,1.623,1.6231,0,0,0,0,0,0,0,1.6141,1.6147,1.6209,1.6186,1.6184,1.6175,1.6177,1.6213,1.621,1.6186,1.6184,1.6188,1.621,1.6221,1.6224,1.628,1.6227,1.623,1.6232,1.6233,1.6382,1.6384,0,0,0,0,0,0,1.6141,1.6146,1.6208,1.621,1.6158,1.6178,1.6181,1.6198,1.6209,1.6209,1.6189,1.6186,1.6216,1.622,1.6225,1.6293,1.623,1.6233,1.6235,1.6379,1.6382,1.6384,0,0,0,0,0,0,1.6139,1.6147,1.6207,1.6177,1.6184,1.6182,1.6201,1.6199,1.621,1.6211,1.621,1.6201,1.6215,1.622,1.6263,1.6294,1.6234,1.6237,1.6377,1.638,1.6383,1.6432,0,0,0,0,0,0,1.6137,1.6146,1.6169,1.6178,1.6186,1.6246,1.6203,1.6201,1.6215,1.6211,1.6222,1.6222,1.6214,1.6259,1.6266,1.6297,1.624,1.6374,1.6378,1.6382,1.6428,1.6436,1.6444,0,0,0,0,0,1.6134,1.6183,1.6171,1.6179,1.6214,1.6248,1.6252,1.6242,1.6218,1.624,1.6241,1.6221,1.6289,1.6264,1.6272,1.6304,1.6372,1.6377,1.6382,1.6424,1.6435,1.6444,0,0,0,0,0,0,1.6179,1.6184,1.6171,1.6223,1.6235,1.6241,1.627,1.6254,1.6273,1.6268,1.6255,1.6258,1.6303,1.6308,1.6279,1.636,1.6327,1.6333,1.6356,1.6366,1.6374,1.6372,1.6242,0,0,0,0,0,1.6195,1.6222,1.6224,1.6271,1.6277,1.6272,1.6287,1.6277,1.6289,1.6294,1.6298,1.631,1.6334,1.635,1.6372,1.6428,1.6429,1.6453,1.6461,1.6468,1.6474,1.6502,1.6512,1.64,1.64,1.64,0,0,1.6229,1.6234,1.6252,1.628,1.6288,1.6315,1.6277,1.6308,1.6328,1.6299,1.634,1.6343,1.6355,1.6404,1.6426,1.6409,1.6505,1.6474,1.6479,1.6482,1.6508,1.6518,1.6528,1.6403,1.6403,1.6402,0,0,1.6304,1.6311,1.635,1.6358,1.637,1.6366,1.6376,1.6383,1.6384,1.6424,1.6402,1.6425,1.6467,1.6476,1.6487,1.6562,1.6545,1.657,1.6613,1.664,1.6649,1.6656,1.6682,1.6692,1.6576,1.6576,1.6576,0,1.6344,1.6385,1.6372,1.6404,1.6416,1.6389,1.6428,1.6437,1.6456,1.6464,1.6445,1.6495,1.6502,1.6552,1.657,1.658,1.6589,1.6569,1.6648,1.6656,1.6663,1.6688,1.6698,1.6579,1.6578,1.6578,1.6578,0,1.6433,1.6462,1.6491,1.6509,1.6524,1.656,1.6551,1.6568,1.6557,1.6554,1.6595,1.6601,1.6623,1.6634,1.6624,1.6682,1.6671,1.6651,1.6617,1.6677,1.67,1.6709,1.6583,1.6582,1.6581,1.658,0,0,1.654,1.6548,1.6559,1.6566,1.6576,1.6598,1.6631,1.6651,1.6666,1.6679,1.6706,1.674,1.672,1.6732,1.6722,1.6746,1.6804,1.6722,1.6722,1.6737,1.6867,1.6882,1.6894,1.6792,1.6794,1.6795,1.6866,0,1.6614,1.6671,1.6659,1.6715,1.674,1.6714,1.6742,1.6751,1.6749,1.677,1.6768,1.6792,1.6765,1.6771,1.6793,1.6792,1.683,1.6787,1.6817,1.6818,1.6814,1.6906,1.6923,1.6989,1.6875,1.6876,1.6877,0,1.6709,1.6725,1.6783,1.6787,1.6797,1.6823,1.6839,1.686,1.6869,1.6865,1.6877,1.6862,1.6894,1.6859,1.6902,1.6873,1.6884,1.6885,1.6887,1.689,1.6851,1.691,1.701,1.702,1.6891,1.689,1.6889,0,1.678,1.6815,1.6854,1.6861,1.6867,1.6885,1.6889,1.6895,1.6908,1.6922,1.693,1.6949,1.6959,1.6973,1.6963,1.6939,1.7007,1.6972,1.7005,1.7005,1.7021,1.702,1.7124,1.7029,1.7028,1.7028,1.7028,0,1.6864,1.6901,1.6885,1.691,1.6949,1.6934,1.6973,1.6973,1.6979,1.7002,1.698,1.7002,1.6987,1.7008,1.7,1.7036,1.7041,1.7039,1.7037,1.7041,1.7041,1.7048,1.7044,1.7031,1.703,1.703,1.7029,0,1.695,1.6942,1.6982,1.6983,1.6984,1.7013,1.7014,1.7036,1.7031,1.7061,1.7067,1.706,1.7083,1.7074,1.7098,1.7093,1.7139,1.713,1.7136,1.7133,1.7167,1.7164,1.7278,1.7292,1.7188,1.7189,1.719,0,1.7005,1.7032,1.7035,1.7049,1.7053,1.7075,1.7087,1.7073,1.7086,1.7097,1.7117,1.7138,1.7154,1.7191,1.7188,1.7206,1.7198,1.7237,1.7201,1.7203,1.7198,1.7196,1.7198,1.7244,1.7245,1.7246,1.7247,0,1.7102,1.7096,1.7114,1.713,1.7144,1.7157,1.7167,1.7179,1.7165,1.7181,1.7203,1.7215,1.7239,1.726,1.7275,1.7278,1.726,1.7258,1.7267,1.7272,1.7273,1.7272,1.7155,1.7256,1.7255,1.7254,1.7254,1.7254,1.7173,1.7195,1.7201,1.7221,1.7227,1.7236,1.7256,1.7253,1.7271,1.7289,1.7279,1.7305,1.7311,1.733,1.7335,1.7355,1.734,1.7352,1.7356,1.7359,1.7363,1.727,1.7358,1.7358,1.7357,1.7357,1.7357,0,1.7269,1.727,1.7289,1.7303,1.7318,1.7299,1.7309,1.7323,1.7346,1.7353,1.7368,1.7393,1.7412,1.741,1.7427,1.7443,1.7435,1.7448,1.7447,1.7447,1.7376,1.7366,1.7454,1.7454,1.7454,1.7454,1.7454,1.7454,1.732,1.7356,1.735,1.7387,1.7388,1.7413,1.742,1.7428,1.7433,1.7462,1.7477,1.7475,1.7478,1.7495,1.7511,1.751,1.7517,1.7533,1.7529,1.7462,1.7453,1.7443,1.7435,1.7535,1.7535,1.7599,1.7599,1.76]}]]